sat.trackr.live / text

‹ back to catalog

STARLINK-4747

NORAD 53832 · 2022-114Q

PAYLOAD ACTIVE UNKNOWN

§ Identity

Operator
Country
US
Launch date
2022-09-19
Launch site
AFETR
Launch vehicle
Mass (kg)
RCS (m²)

Purposes: comms

External: N2YO · Heavens-Above · Gunter

§ Orbital elements

Epoch: 2026-05-25T04:31:14.272032Z

Period
95.44 min
Inclination
53.2145°
Eccentricity
0.0001241
Mean motion
15.08836487 rev/d
Perigee alt
538.9 km
Apogee alt
540.6 km
Semi-major
6,917.9 km
B*
1.8514e-5
RAAN
320.4547°
Arg perigee
86.5667°
Mean anomaly
273.5467°
Rev number
20,438

§ Raw data

STARLINK-47471 53832U 22114Q   26145.18835963  .00000007  00000+0  18514-4 0  99912 53832  53.2145 320.4547 0001241  86.5667 273.5467 15.08836487204385

JSON: /api/v1/satellites/53832 · /tle

For live sub-satellite position, see the globe view (requires WebGL).

§ Visibility from observer

Set your observer location to see the next 7 days of passes ≥ 10°. The values pass through the URL so the page stays shareable.

No JS? Fill the form by hand. The geolocation button needs JavaScript.